Terug naar catalogus

STARLINK-35772

ActiefCommunicatieVLEO
NORAD 66976·PAYLOAD·🇺🇸 United States

Gelanceerd Dec 8, 2025 vanaf Cape Canaveral Space Force Station

Loading…

Volgende Passages (komende 24 uur)

TLE

VersSource: CelesTrak SupGP

Epoch: Sep 15, 2026, 03:25 UTC

1 66976C 25288T   26258.14284722 -.00006985  00000+0 -25298-3 0  2588
2 66976  43.0038  33.5421 0001384 267.4669  36.7522 15.27584212    11

Volg STARLINK-35772 in realtime met AllMySat

Download on the App Store